Regional Weather Roundup
Issued by NWS

Home | Current Version | Previous Version | Graphics & Text | Print | Product List | Glossary On
Versions: 1 2 3 4 5 6 7 8 9 10 11 12 13 14 15 16 17 18 19 20 21 22 23 24 25 26 27 28 29 30 31 32 33 34 35 36 37 38 39 40 41 42 43 44 45 46 47 48 49 50
000
ASUS45 KABQ 281610
RWRNM
NEW MEXICO REGIONAL WEATHER ROUNDUP
NATIONAL WEATHER SERVICE ALBUQUERQUE NM
1000 AM MDT FRI AUG 28 2015

NOTE: "FAIR" MEANS FEW OR NO CLOUDS BELOW 12,000 FEET AGL WITH NO
       SIGNIFICANT WEATHER OR OBSTRUCTIONS TO VISION.

      THIS PRODUCT IS RELEASED AS TWO VERSIONS.  ONE VERSION NEAR
      THE TOP OF THE HOUR CONTAINING PRELIMINARY DATA FROM ALBUQUERQUE
      AND OTHER STATIONS.  A FINAL VERSION WITH ADDITIONAL DATA IS
      ISSUED ABOUT 10 MINUTES AFTER THE HOUR.

NMZ501-503-504-510>518-281700-
NORTHWEST PLATEAU/NORTHCENTRAL MOUNTAINS

CITY           SKY/WX    TMP DP  RH WIND       PRES   REMARKS
FARMINGTON     SUNNY     70  54  56 VRB3      30.26R
LOS ALAMOS     SUNNY     70  47  44 NE10      30.36S
SANTA FE       SUNNY     75  49  39 N10       30.29R
TAOS           SUNNY     70  45  40 N13       30.37S
ANGEL FIRE     FAIR      57  50  76 CALM      30.45R

$$
NMZ402-403-502-505>509-281700-
WESTCENTRAL MOUNTAINS/SOUTHWEST MOUNTAINS

CITY           SKY/WX    TMP DP  RH WIND       PRES   REMARKS
GALLUP         SUNNY     69  53  56 CALM      30.33F
GRANTS         SUNNY     67  56  67 CALM      30.34F
SILVER CITY      N/A     77  48  36 CALM      30.24S

$$
NMZ407-409-411-412-281700-
SOUTHERN DESERTS

CITY           SKY/WX    TMP DP  RH WIND       PRES   REMARKS
DEMING         PTSUNNY   81  56  42 CALM      30.15R
LAS CRUCES     MOSUNNY   83  54  36 CALM      30.16S
HOLLOMAN AFB   SUNNY     83  53  34 CALM      30.11S
ALAMOGORDO     MOSUNNY   82  54  36 W5        30.14R
T OR C         SUNNY     81  53  37 N6        30.19R

$$
NMZ519>523-281700-
CENTRAL VALLEYS/CENTRAL HIGHLANDS

CITY           SKY/WX    TMP DP  RH WIND       PRES   REMARKS
ALBUQUERQUE    PTSUNNY   74  55  51 N6        30.25R
DOUBLE EAGLE   MOSUNNY   75  54  46 N9        30.28R
MORIARTY ARPT  FAIR      73  51  47 N5        30.29S
CLINES CORNERS SUNNY     71  50  47 W3        30.32S
BELEN          FAIR      75  56  51 NW3       30.23S
SOCORRO        FAIR      77  57  50 N7        30.20S

$$
NMZ524>526-539-540-281700-
SOUTHCENTRAL MOUNTAINS

CITY           SKY/WX    TMP DP  RH WIND       PRES   REMARKS
RUIDOSO        SUNNY     72  50  46 MISG      30.33S

$$
NMZ527>531-281700-
NORTHEAST HIGHLANDS/NORTHEAST PLAINS

CITY           SKY/WX    TMP DP  RH WIND       PRES   REMARKS
LAS VEGAS      SUNNY     71  51  49 N6        30.34R
RATON          SUNNY     73  49  42 CALM      30.28R
CLAYTON        SUNNY     78  57  48 NE12      30.19S

$$
NMZ532>537-281700-
EASTCENTRAL PLAINS

CITY           SKY/WX    TMP DP  RH WIND       PRES   REMARKS
TUCUMCARI      SUNNY     83  57  41 NE12G18   30.12R
CANNON AFB     SUNNY     80  59  48 N14       30.12R
CLOVIS AIRPORT SUNNY     79  57  47 NE9       30.13S

$$
NMZ028-029-538-281700-
SOUTHEAST PLAINS

CITY           SKY/WX    TMP DP  RH WIND       PRES   REMARKS
ROSWELL        SUNNY     85  56  37 N9        30.09S
ARTESIA        MOSUNNY   82  59  44 N10       30.09S
CARLSBAD       SUNNY     87  52  29 N7        30.06R
HOBBS          SUNNY     84  54  34 S10       30.09R


$$


USA.gov is the U.S. government's official web portal to all federal, state and local government web resources and services.